Darstellungsparameter: Aktuell verwendete Einstellungen:
Skalierung der Graphiken ... ?
xyx+y,   Skalierungsfaktor:      Skalierung: Modus: x, Faktor: 1
Darstellungszeitraum ... ?
Vom - - bis: - -   Zeitraum: 02.03.2021 - 02.03.2021
Min/Max/Avg-Anzeige ... ?
Zeige MMA aktuell
Zeige MMA Monat
Zeige MMA alles
Zeige --A aktuell
Zeige --A Monat
Zeige --A alles
Keine MMA-Anzeige
MMA:
Minimum Maximum Average (ber die Originaldaten)
MMA-Basis: 02.03.2021 - 02.03.2021
Quicknavigation für Darstellung... ?
Tage:      1T, 2T, 3T, 5T -1T -2T -3T -5T +1T +2T +3T +5T
Wochen: 1W, 2W, 3W -1W -2W -3W +1W +2W +3W
Monate: 1M, 3M, 6M -1M -3M -6M +1M +3M +6M
Jahre:    1J, 3J, 5J, 10J -1J -3J -5J -10J +1J +3J +5J +10J
Nutze für die Darstellung ... ?
Originaldaten oder Mittelwerte auf ...
Stundenbasis Tagesbasis Wochenbasis
Monatsbasis Jahresbasis      Datenbasis: Original-Daten
Darstellen als:
Statistik (Auto) Statistik J:M      Darstellung:

Der gewünschte Datumsbereich war nicht gültig/verfügbar und wurde korrigiert....
Das angegebene Enddatum (15.08.2024 23:59:59) liegt in der Zukunft.
Das angegebene Startdatum (16.02.2024 00:00:00) liegt in der Zukunft.


Zur Graphik,    zurück zur Übersicht aller Sensoren.
 
Tabellarische Datenbersicht: ?
 
Sensor: Nr:Datum:Temp:Feuchte:Taupunkt:
Aussen-T/F 1 02-03-2021 01:00:00 1.8 C 93 % 0.79 C
2 02-03-2021 01:05:00 1.8 C 93 % 0.79 C
3 02-03-2021 01:10:00 1.8 C 93 % 0.79 C
4 02-03-2021 01:15:00 1.8 C 93 % 0.79 C
5 02-03-2021 01:20:00 1.7 C 93 % 0.69 C
6 02-03-2021 01:25:00 1.7 C 93 % 0.69 C
7 02-03-2021 01:30:00 1.7 C 94 % 0.84 C
8 02-03-2021 01:35:00 1.7 C 94 % 0.84 C
9 02-03-2021 01:40:00 1.6 C 94 % 0.74 C
10 02-03-2021 01:45:00 1.6 C 94 % 0.74 C
11 02-03-2021 01:50:00 1.4 C 94 % 0.54 C
12 02-03-2021 01:55:00 1.4 C 94 % 0.54 C
13 02-03-2021 02:00:00 1.3 C 94 % 0.44 C
14 02-03-2021 02:05:00 1.2 C 94 % 0.34 C
15 02-03-2021 02:10:00 1.3 C 94 % 0.44 C
16 02-03-2021 02:15:00 1.3 C 94 % 0.44 C
17 02-03-2021 02:20:00 1.2 C 94 % 0.34 C
18 02-03-2021 02:25:00 1.1 C 94 % 0.24 C
19 02-03-2021 02:30:00 1 C 94 % 0.15 C
20 02-03-2021 02:35:00 0.9 C 94 % 0.05 C
21 02-03-2021 02:40:00 0.8 C 94 % -0.05 C
22 02-03-2021 02:45:00 0.7 C 94 % -0.15 C
23 02-03-2021 02:50:00 0.6 C 94 % -0.25 C
24 02-03-2021 02:55:00 0.6 C 94 % -0.25 C
25 02-03-2021 03:00:00 0.6 C 94 % -0.25 C
Sensor: Nr:Datum:Temp:Feuchte:Taupunkt:
Aussen-T/F 26 02-03-2021 03:05:00 0.6 C 94 % -0.25 C
27 02-03-2021 03:10:00 0.4 C 94 % -0.45 C
28 02-03-2021 03:15:00 0.4 C 94 % -0.45 C
29 02-03-2021 03:20:00 0.3 C 94 % -0.55 C
30 02-03-2021 03:25:00 0.3 C 94 % -0.55 C
31 02-03-2021 03:30:00 0.3 C 94 % -0.55 C
32 02-03-2021 03:35:00 0.2 C 94 % -0.65 C
33 02-03-2021 03:40:00 0.2 C 94 % -0.65 C
34 02-03-2021 03:45:00 0.2 C 94 % -0.65 C
35 02-03-2021 03:50:00 0.2 C 95 % -0.5 C
36 02-03-2021 03:55:00 0.2 C 94 % -0.65 C
37 02-03-2021 04:00:00 0.2 C 94 % -0.65 C
38 02-03-2021 04:05:00 0.1 C 95 % -0.6 C
39 02-03-2021 04:10:00 0.1 C 95 % -0.6 C
40 02-03-2021 04:15:00 0.1 C 95 % -0.6 C
41 02-03-2021 04:20:00 0.1 C 95 % -0.6 C
42 02-03-2021 04:25:00 0.1 C 95 % -0.6 C
43 02-03-2021 04:30:00 0.1 C 95 % -0.6 C
44 02-03-2021 04:35:00 0.1 C 95 % -0.6 C
45 02-03-2021 04:40:00 -0.1 C 95 % -0.8 C
46 02-03-2021 04:45:00 -0.1 C 95 % -0.8 C
47 02-03-2021 04:50:00 -0.2 C 95 % -0.9 C
48 02-03-2021 04:55:00 -0.2 C 95 % -0.9 C
49 02-03-2021 05:00:00 -0.3 C 95 % -1 C
50 02-03-2021 05:05:00 -0.3 C 95 % -1 C
Sensor: Nr:Datum:Temp:Feuchte:Taupunkt:
Aussen-T/F 51 02-03-2021 05:10:00 -0.3 C 95 % -1 C
52 02-03-2021 05:15:00 -0.3 C 95 % -1 C
53 02-03-2021 05:20:00 -0.3 C 95 % -1 C
54 02-03-2021 05:25:00 -0.3 C 95 % -1 C
55 02-03-2021 05:30:00 -0.3 C 95 % -1 C
56 02-03-2021 05:35:00 -0.3 C 95 % -1 C
57 02-03-2021 05:40:00 -0.3 C 95 % -1 C
58 02-03-2021 05:45:00 -0.4 C 95 % -1.1 C
59 02-03-2021 05:50:00 -0.4 C 95 % -1.1 C
60 02-03-2021 05:55:00 -0.4 C 95 % -1.1 C
61 02-03-2021 06:00:00 -0.4 C 95 % -1.1 C
62 02-03-2021 06:05:00 -0.4 C 95 % -1.1 C
63 02-03-2021 06:10:00 -0.6 C 95 % -1.3 C
64 02-03-2021 06:15:00 -0.6 C 95 % -1.3 C
65 02-03-2021 06:20:00 -0.5 C 95 % -1.2 C
66 02-03-2021 06:25:00 -0.4 C 95 % -1.1 C
67 02-03-2021 06:30:00 -0.4 C 95 % -1.1 C
68 02-03-2021 06:35:00 -0.4 C 95 % -1.1 C
69 02-03-2021 06:40:00 -0.4 C 95 % -1.1 C
70 02-03-2021 06:45:00 -0.4 C 95 % -1.1 C
71 02-03-2021 06:50:00 -0.5 C 95 % -1.2 C
72 02-03-2021 06:55:00 -0.5 C 95 % -1.2 C
73 02-03-2021 07:00:00 -0.4 C 95 % -1.1 C
74 02-03-2021 07:05:00 -0.4 C 96 % -0.96 C
75 02-03-2021 07:10:00 -0.3 C 96 % -0.86 C
Sensor: Nr:Datum:Temp:Feuchte:Taupunkt:
Aussen-T/F 76 02-03-2021 07:15:00 -0.4 C 96 % -0.96 C
77 02-03-2021 07:20:00 -0.4 C 95 % -1.1 C
78 02-03-2021 07:25:00 -0.6 C 95 % -1.3 C
79 02-03-2021 07:30:00 -0.7 C 95 % -1.4 C
80 02-03-2021 07:35:00 -0.7 C 95 % -1.4 C
81 02-03-2021 07:40:00 -0.7 C 95 % -1.4 C
82 02-03-2021 07:45:00 -0.8 C 95 % -1.5 C
83 02-03-2021 07:50:00 -0.8 C 95 % -1.5 C
84 02-03-2021 07:55:00 -0.8 C 95 % -1.5 C
85 02-03-2021 08:00:00 -0.9 C 95 % -1.6 C
86 02-03-2021 08:05:00 -0.9 C 95 % -1.6 C
87 02-03-2021 08:10:00 -1 C 95 % -1.7 C
88 02-03-2021 08:15:00 -0.9 C 95 % -1.6 C
89 02-03-2021 08:20:00 -0.9 C 95 % -1.6 C
90 02-03-2021 08:25:00 -0.8 C 95 % -1.5 C
91 02-03-2021 08:30:00 -0.8 C 95 % -1.5 C
92 02-03-2021 08:35:00 -0.8 C 95 % -1.5 C
93 02-03-2021 08:40:00 -0.8 C 95 % -1.5 C
94 02-03-2021 08:45:00 -0.8 C 95 % -1.5 C
95 02-03-2021 08:50:00 -0.7 C 96 % -1.26 C
96 02-03-2021 08:55:00 -0.7 C 96 % -1.26 C
97 02-03-2021 09:00:00 -0.6 C 96 % -1.16 C
98 02-03-2021 09:05:00 -0.5 C 96 % -1.06 C
99 02-03-2021 09:10:00 -0.4 C 96 % -0.96 C
100 02-03-2021 09:15:00 -0.3 C 96 % -0.86 C
Sensor: Nr:Datum:Temp:Feuchte:Taupunkt:
Aussen-T/F 101 02-03-2021 09:20:00 -0.2 C 96 % -0.76 C
102 02-03-2021 09:25:00 -0.2 C 96 % -0.76 C
103 02-03-2021 09:30:00 -0.1 C 96 % -0.66 C
104 02-03-2021 09:35:00 0 C 96 % -0.56 C
105 02-03-2021 09:40:00 0.1 C 96 % -0.46 C
106 02-03-2021 09:45:00 0.3 C 96 % -0.26 C
107 02-03-2021 09:50:00 0.4 C 96 % -0.16 C
108 02-03-2021 09:55:00 0.5 C 96 % -0.06 C
109 02-03-2021 10:00:00 0.7 C 96 % 0.14 C
110 02-03-2021 10:05:00 0.8 C 96 % 0.24 C
111 02-03-2021 10:10:00 0.9 C 96 % 0.34 C
112 02-03-2021 10:15:00 1 C 96 % 0.44 C

Legende:
   Min
   Max


Maximal/Minimal-Werte vom 02.03.2021 - 02.03.2021

Sensor Min Max Avg
Temp
(Aussen-T/F)
-1 °C
02-03-2021  08:10:00
1.8 °C
02-03-2021  01:00:00
0.11 °C
Feuchte
(Aussen-T/F)
93 %
02-03-2021  01:00:00
96 %
02-03-2021  07:05:00
94.81 %
Taupunkt
(Aussen-T/F)
-1.7 C
02-03-2021  08:10:00
0.84 C
02-03-2021  01:30:00
-0.62 C

Die Daten stammen von einer Davis Vantage Pro 2 Wetter-Station und werden unter Linux mit der Software wview2wettercgi und aufbereitet. Alle Angaben erfolgen ohne Gewähr für ihre Vollständigkeit oder Richtigkeit.
Kontakt: Rainer Krienke krienke@uni-koblenz.de . Meine Webseiten an der Uni Koblenz oder privat.
Version: $Revision: 0.78 $